This demonstration page uses our WeatherBlox Daily Observations layout. Learn more.

36.17497, -115.13722

Hourly Observations for June 26, 2020

Temp ( °F °C ) Dew Point ( °F °C ) Humidity (%) Winds ( mph kmh ) Pressure ( in mb ) Visibility ( mi km ) Precip ( " mm )
12:53 am 00:53 Clear 90 32.2 44 6.7 20 20 NNW 16 26 30.08 1019 10 16.0934 0 0
1:53 am 01:53 Clear 89 31.7 44 6.7 21 21 NW 14 22 30.09 1019 10 16.0934 0 0
2:53 am 02:53 Clear 87 30.6 43 6.1 21 21 NW 9 15 30.09 1019 10 16.0934 0 0
3:53 am 03:53 Clear 84 28.9 43 6.1 24 24 NW 12 19 30.1 1019 10 16.0934 0 0
4:53 am 04:53 Clear 84 28.9 43 6.1 24 24 NW 10 17 30.1 1019 10 16.0934 0 0
5:53 am 05:53 Sunny 85 29.4 43 6.1 23 23 NW 13 20 30.11 1020 10 16.0934 0 0
6:53 am 06:53 Sunny 86 30 44 6.7 23 23 NW 9 15 30.11 1020 10 16.0934 0 0
7:53 am 07:53 Sunny 88 31.1 44 6.7 22 22 NW 12 19 30.11 1020 10 16.0934 0 0
8:53 am 08:53 Sunny 92 33.3 44 6.7 19 19 NW 9 15 30.11 1020 10 16.0934 0 0
9:53 am 09:53 Sunny 94 34.4 43 6.1 17 17 NE 6 9 30.12 1020 10 16.0934 0 0
10:53 am 10:53 Sunny 95 35 42 5.6 16 16 Calm N/A 10 16.0934 0 0
11:53 am 11:53 Sunny 99 37.2 41 5 14 14 ESE 7 11 29.82 1010 10 16.0934 0 0
12:53 pm 12:53 Sunny 100 37.8 41 5 13 13 ESE 8 13 29.8 1009 10 16.0934 0 0
1:53 pm 13:53 Sunny 101 38.3 40 4.4 12 12 SSE 8 13 29.79 1009 10 16.0934 0 0
2:53 pm 14:53 Sunny 103 39.4 39 3.9 11 11 VRB 7 11 29.77 1008 10 16.0934 0 0
3:53 pm 15:53 Sunny 103 39.4 37 2.8 10 10 ESE 9 15 29.75 1007 10 16.0934 0 0
4:53 pm 16:53 Sunny 103 39.4 35 1.7 9 9 SSW 9 15 29.73 1007 10 16.0934 0 0
5:53 pm 17:53 Sunny 103 39.4 32 0 8 8 Calm 29.72 1007 10 16.0934 0 0
6:53 pm 18:53 Sunny 103 39.4 25 -3.9 6 6 SSE 6 9 29.72 1007 10 16.0934 0 0
7:17 pm 19:17 Sunny 100 37.8 37 2.8 11 11 SSW 20 31 29.57 1001 10 16.0934 0 0
7:53 pm 19:53 Sunny 98 36.7 37 2.8 12 12 SW 13 20 29.74 1007 10 16.0934 0 0
8:53 pm 20:53 Clear 97 36.1 37 2.8 12 12 SW 7 11 29.75 1007 10 16.0934 0 0
9:53 pm 21:53 Clear 94 34.4 37 2.8 14 14 S 9 15 29.76 1008 10 16.0934 0 0
10:53 pm 22:53 Clear 92 33.3 36 2.2 14 14 Calm 29.77 1008 10 16.0934 0 0
11:53 pm 23:53 Clear 91 32.8 38 3.3 15 15 WSW 3 6 29.77 1008 10 16.0934 0 0

Powered by AerisWeather